QPF
0.01 0.00 0.00 0.00 0.00 0.00 0.00 0.00 0.00 0.00 0.00 0.00 0.00 0.00 0.00 0.00 0.00 0.00 0.00 0.00 0.00 0.00 0.00 0.00 0.00 0.00 0.00 0.00 0.00 0.00 0.00 0.00 0.00 0.00 0.00 0.00 0.00 0.00 0.00 0.00 0.00 0.00 0.00
0.00 0.00 0.00 0.00 0.00 0.00 0.00 0.00 0.00 0.00 0.00 0.00 0.00 0.00 0.00 0.00 0.00 0.00 0.00 0.00 0.00 0.00 0.00 0.00 0.00 0.00 0.00 0.00 0.00 0.00 0.00 0.00 0.00 0.00 0.00 0.00 0.00 0.00 0.00 0.00 0.00 0.00 0.00
0.00 0.00 0.00 0.00 0.00 0.00 0.00 0.00 0.00 0.00 0.00 0.00 0.00 0.00 0.01 0.01 0.01 0.01 0.01 0.00 0.00 0.00 0.00 0.01 0.01 0.01 0.01 0.00 0.00 0.00 0.00 0.00 0.00 0.00 0.00 0.00 0.00 0.00 0.00 0.00 0.00 0.00 0.00
0.00 0.00 0.00 0.00 0.00 0.00 0.01 0.01 0.01 0.01 0.01 0.01 0.02 0.02 0.02 0.02 0.01 0.01 0.01 0.01 0.00 0.00 0.00 0.00 0.00 0.01 0.01 0.01 0.01 0.01 0.02 0.01 0.01 0.01 0.01 0.00 0.00 0.00 0.00 0.00 0.00 0.00 0.00
0.00 0.00 0.00 0.00 0.00 0.01 0.03 0.04 0.06 0.06 0.06 0.06 0.06 0.04 0.03 0.02 0.02 0.01 0.01 0.01 0.01 0.01 0.00 0.00 0.00 0.01 0.01 0.02 0.02 0.02 0.03 0.04 0.04 0.03 0.02 0.01 0.00 0.00 0.00 0.00 0.00 0.00 0.00
0.02 0.02 0.02 0.02 0.02 0.04 0.06 0.08 0.10 0.09 0.07 0.06 0.04 0.03 0.03 0.02 0.02 0.01 0.01 0.01 0.01 0.00 0.00 0.00 0.00 0.00 0.02 0.04 0.04 0.03 0.04 0.07 0.10 0.09 0.05 0.03 0.02 0.01 0.01 0.00 0.00 0.00 0.00
0.10 0.08 0.06 0.06 0.05 0.04 0.04 0.04 0.05 0.05 0.05 0.04 0.02 0.02 0.01 0.01 0.01 0.00 0.00 0.00 0.00 0.00 0.00 0.00 0.00 0.00 0.01 0.03 0.04 0.04 0.05 0.08 0.12 0.11 0.07 0.06 0.06 0.04 0.02 0.01 0.00 0.00 0.00
0.12 0.08 0.05 0.04 0.03 0.03 0.04 0.03 0.02 0.01 0.01 0.01 0.01 0.01 0.00 0.00 0.00 0.00 0.00 0.00 0.00 0.00 0.00 0.00 0.00 0.00 0.00 0.00 0.01 0.02 0.05 0.05 0.04 0.06 0.09 0.10 0.07 0.05 0.03 0.02 0.01 0.00 0.00
0.10 0.07 0.04 0.03 0.02 0.02 0.01 0.01 0.01 0.00 0.00 0.00 0.00 0.01 0.01 0.00 0.00 0.00 0.00 0.00 0.00 0.00 0.00 0.00 0.00 0.00 0.00 0.00 0.00 0.01 0.04 0.05 0.03 0.03 0.06 0.10 0.08 0.05 0.03 0.02 0.01 0.00 0.00
0.04 0.03 0.02 0.01 0.01 0.00 0.00 0.00 0.00 0.00 0.00 0.00 0.00 0.00 0.00 0.01 0.01 0.00 0.00 0.00 0.00 0.00 0.00 0.00 0.00 0.00 0.00 0.00 0.00 0.01 0.02 0.04 0.05 0.04 0.05 0.07 0.07 0.06 0.03 0.02 0.01 0.01 0.00
0.00 0.00 0.00 0.00 0.00 0.00 0.00 0.00 0.00 0.00 0.00 0.00 0.00 0.00 0.00 0.00 0.00 0.01 0.01 0.00 0.00 0.00 0.00 0.00 0.00 0.00 0.00 0.01 0.01 0.02 0.03 0.04 0.05 0.06 0.06 0.05 0.04 0.04 0.03 0.02 0.01 0.00 0.00
0.00 0.00 0.00 0.00 0.00 0.00 0.00 0.00 0.00 0.00 0.00 0.00 0.00 0.00 0.01 0.01 0.01 0.01 0.01 0.01 0.01 0.00 0.00 0.00 0.00 0.00 0.00 0.01 0.02 0.03 0.05 0.07 0.09 0.10 0.09 0.07 0.05 0.03 0.03 0.02 0.01 0.01 0.01
0.00 0.00 0.00 0.00 0.00 0.00 0.00 0.00 0.00 0.00 0.00 0.00 0.00 0.00 0.00 0.01 0.01 0.02 0.02 0.02 0.01 0.00 0.00 0.00 0.00 0.00 0.00 0.01 0.01 0.02 0.04 0.06 0.08 0.09 0.08 0.07 0.04 0.02 0.01 0.01 0.00 0.00 0.00
0.00 0.00 0.00 0.00 0.00 0.00 0.00 0.00 0.00 0.00 0.00 0.00 0.00 0.01 0.01 0.01 0.01 0.02 0.03 0.04 0.04 0.02 0.01 0.00 0.00 0.00 0.00 0.00 0.00 0.01 0.02 0.03 0.03 0.03 0.03 0.02 0.02 0.01 0.00 0.00 0.00 0.00 0.00
0.00 0.00 0.00 0.00 0.00 0.00 0.00 0.00 0.00 0.00 0.01 0.01 0.01 0.01 0.01 0.01 0.01 0.02 0.03 0.05 0.06 0.06 0.03 0.01 0.00 0.00 0.00 0.00 0.00 0.01 0.03 0.05 0.05 0.03 0.01 0.01 0.00 0.00 0.00 0.00 0.00 0.00 0.00
0.00 0.00 0.00 0.00 0.00 0.00 0.00 0.00 0.00 0.01 0.01 0.01 0.01 0.01 0.01 0.01 0.01 0.01 0.02 0.03 0.04 0.06 0.05 0.02 0.00 0.00 0.00 0.00 0.01 0.03 0.08 0.13 0.12 0.07 0.03 0.01 0.00 0.00 0.00 0.00 0.00 0.00 0.00
0.00 0.00 0.00 0.00 0.01 0.00 0.00 0.00 0.01 0.01 0.01 0.00 0.00 0.01 0.01 0.01 0.01 0.01 0.02 0.02 0.02 0.04 0.05 0.03 0.01 0.00 0.00 0.00 0.01 0.04 0.08 0.09 0.08 0.07 0.03 0.02 0.01 0.00 0.00 0.00 0.00 0.00 0.00
0.00 0.00 0.00 0.00 0.00 0.00 0.00 0.00 0.00 0.00 0.00 0.00 0.00 0.00 0.00 0.01 0.01 0.01 0.02 0.02 0.02 0.03 0.05 0.04 0.02 0.00 0.00 0.00 0.02 0.03 0.04 0.04 0.04 0.05 0.03 0.02 0.01 0.00 0.00 0.00 0.00 0.00 0.00
0.00 0.00 0.00 0.00 0.00 0.00 0.00 0.00 0.00 0.00 0.00 0.00 0.00 0.00 0.00 0.01 0.01 0.02 0.02 0.02 0.02 0.03 0.04 0.04 0.02 0.00 0.00 0.01 0.02 0.04 0.05 0.04 0.03 0.03 0.02 0.02 0.01 0.00 0.00 0.00 0.00 0.00 0.00
0.00 0.00 0.00 0.00 0.00 0.00 0.00 0.00 0.00 0.00 0.00 0.00 0.00 0.00 0.01 0.02 0.03 0.02 0.02 0.02 0.02 0.01 0.01 0.02 0.01 0.01 0.01 0.02 0.04 0.07 0.08 0.05 0.03 0.02 0.03 0.02 0.02 0.02 0.03 0.08 0.07 0.03 0.01
0.00 0.00 0.00 0.00 0.00 0.00 0.00 0.00 0.00 0.00 0.00 0.00 0.00 0.01 0.01 0.02 0.03 0.02 0.01 0.01 0.01 0.01 0.02 0.03 0.02 0.02 0.02 0.04 0.05 0.06 0.06 0.05 0.03 0.02 0.02 0.03 0.05 0.15 0.37 0.50 0.33 0.12 0.06
0.00 0.00 0.00 0.00 0.00 0.00 0.00 0.00 0.00 0.00 0.00 0.00 0.00 0.01 0.01 0.01 0.00 0.00 0.00 0.01 0.01 0.03 0.05 0.05 0.04 0.03 0.03 0.04 0.04 0.05 0.05 0.04 0.04 0.03 0.02 0.05 0.13 0.51 0.88 1.02 0.70 0.27 0.16
0.00 0.00 0.00 0.00 0.00 0.00 0.00 0.00 0.00 0.00 0.00 0.00 0.00 0.00 0.01 0.00 0.00 0.00 0.00 0.00 0.02 0.05 0.09 0.08 0.06 0.03 0.03 0.04 0.04 0.05 0.04 0.04 0.05 0.03 0.03 0.07 0.24 0.68 0.88 1.03 0.82 0.38 0.26
0.00 0.00 0.00 0.00 0.00 0.00 0.00 0.00 0.00 0.00 0.00 0.00 0.00 0.00 0.01 0.00 0.00 0.00 0.00 0.00 0.02 0.05 0.07 0.06 0.04 0.03 0.03 0.04 0.05 0.04 0.03 0.03 0.03 0.02 0.03 0.09 0.30 0.62 0.70 0.73 0.77 0.53 0.43
0.00 0.00 0.00 0.00 0.00 0.00 0.00 0.00 0.00 0.00 0.00 0.00 0.00 0.00 0.00 0.00 0.01 0.01 0.00 0.01 0.04 0.07 0.09 0.08 0.07 0.06 0.06 0.06 0.04 0.02 0.02 0.03 0.03 0.02 0.03 0.09 0.26 0.47 0.53 0.56 0.66 0.65 0.63
0.00 0.00 0.00 0.00 0.00 0.00 0.00 0.00 0.00 0.00 0.00 0.00 0.00 0.00 0.00 0.01 0.01 0.01 0.01 0.03 0.07 0.11 0.14 0.14 0.11 0.10 0.09 0.07 0.05 0.03 0.03 0.04 0.04 0.03 0.03 0.07 0.17 0.29 0.40 0.50 0.52 0.51 0.56
MSLP
1016.37 1016.31 1016.23 1016.17 1016.14 1016.16 1016.23 1016.33 1016.41 1016.46 1016.44 1016.34 1016.18 1015.97 1015.75 1015.56 1015.40 1015.30 1015.25 1015.23 1015.23 1015.21 1015.18 1015.11 1015.03 1014.94 1014.85 1014.78 1014.73 1014.72 1014.73 1014.77 1014.82 1014.87 1014.92 1014.97 1015.00 1015.02 1015.01 1014.98 1014.93 1014.88 1014.82
1016.39 1016.35 1016.29 1016.24 1016.22 1016.25 1016.30 1016.37 1016.44 1016.46 1016.42 1016.32 1016.16 1015.96 1015.74 1015.53 1015.36 1015.22 1015.13 1015.06 1015.00 1014.95 1014.87 1014.78 1014.67 1014.55 1014.42 1014.31 1014.22 1014.16 1014.14 1014.15 1014.20 1014.28 1014.39 1014.51 1014.64 1014.74 1014.82 1014.86 1014.86 1014.81 1014.74
1016.50 1016.47 1016.43 1016.40 1016.39 1016.40 1016.44 1016.49 1016.53 1016.53 1016.48 1016.38 1016.22 1016.03 1015.82 1015.61 1015.41 1015.24 1015.09 1014.95 1014.82 1014.70 1014.56 1014.42 1014.26 1014.10 1013.93 1013.77 1013.63 1013.52 1013.45 1013.43 1013.47 1013.57 1013.73 1013.93 1014.16 1014.38 1014.57 1014.71 1014.78 1014.79 1014.75
1016.69 1016.67 1016.65 1016.63 1016.62 1016.63 1016.65 1016.67 1016.68 1016.66 1016.61 1016.51 1016.37 1016.20 1016.00 1015.79 1015.57 1015.35 1015.13 1014.91 1014.70 1014.49 1014.29 1014.08 1013.87 1013.66 1013.45 1013.24 1013.04 1012.87 1012.75 1012.69 1012.70 1012.81 1013.00 1013.26 1013.57 1013.89 1014.19 1014.45 1014.62 1014.72 1014.74
1016.96 1016.95 1016.93 1016.91 1016.90 1016.90 1016.90 1016.90 1016.88 1016.85 1016.79 1016.70 1016.58 1016.43 1016.26 1016.05 1015.81 1015.54 1015.26 1014.96 1014.66 1014.37 1014.09 1013.82 1013.56 1013.30 1013.05 1012.79 1012.54 1012.31 1012.13 1012.01 1011.98 1012.06 1012.24 1012.53 1012.89 1013.28 1013.68 1014.03 1014.31 1014.50 1014.60
1017.31 1017.28 1017.26 1017.24 1017.22 1017.20 1017.18 1017.15 1017.12 1017.07 1017.01 1016.93 1016.84 1016.72 1016.56 1016.36 1016.10 1015.80 1015.46 1015.09 1014.72 1014.35 1014.00 1013.68 1013.37 1013.08 1012.78 1012.49 1012.19 1011.90 1011.65 1011.45 1011.36 1011.38 1011.52 1011.79 1012.15 1012.57 1013.01 1013.43 1013.78 1014.06 1014.24
1017.70 1017.65 1017.61 1017.58 1017.55 1017.52 1017.48 1017.43 1017.37 1017.32 1017.26 1017.20 1017.13 1017.03 1016.89 1016.70 1016.44 1016.10 1015.72 1015.30 1014.86 1014.43 1014.03 1013.66 1013.32 1013.00 1012.68 1012.34 1012.00 1011.65 1011.33 1011.06 1010.88 1010.81 1010.88 1011.08 1011.39 1011.79 1012.23 1012.67 1013.07 1013.40 1013.65
1018.13 1018.05 1017.98 1017.93 1017.89 1017.84 1017.78 1017.72 1017.65 1017.59 1017.54 1017.49 1017.43 1017.35 1017.23 1017.04 1016.77 1016.42 1016.00 1015.54 1015.06 1014.59 1014.15 1013.75 1013.38 1013.03 1012.69 1012.33 1011.94 1011.54 1011.15 1010.80 1010.52 1010.36 1010.33 1010.44 1010.68 1011.01 1011.41 1011.82 1012.22 1012.57 1012.86
1018.57 1018.45 1018.35 1018.28 1018.22 1018.16 1018.09 1018.02 1017.94 1017.88 1017.82 1017.78 1017.73 1017.65 1017.53 1017.33 1017.06 1016.69 1016.25 1015.76 1015.25 1014.76 1014.29 1013.87 1013.48 1013.11 1012.74 1012.35 1011.93 1011.48 1011.03 1010.61 1010.26 1010.01 1009.89 1009.91 1010.05 1010.31 1010.64 1011.01 1011.37 1011.71 1012.01
1018.99 1018.83 1018.71 1018.62 1018.54 1018.47 1018.40 1018.32 1018.24 1018.16 1018.10 1018.04 1017.98 1017.89 1017.75 1017.54 1017.24 1016.86 1016.40 1015.90 1015.38 1014.86 1014.38 1013.94 1013.53 1013.13 1012.73 1012.31 1011.86 1011.38 1010.89 1010.43 1010.03 1009.73 1009.55 1009.50 1009.58 1009.76 1010.03 1010.33 1010.66 1010.97 1011.25
1019.37 1019.18 1019.04 1018.93 1018.84 1018.76 1018.68 1018.59 1018.50 1018.41 1018.33 1018.24 1018.14 1018.02 1017.84 1017.60 1017.28 1016.87 1016.40 1015.89 1015.36 1014.84 1014.34 1013.87 1013.44 1013.01 1012.58 1012.13 1011.66 1011.16 1010.66 1010.20 1009.80 1009.49 1009.29 1009.22 1009.27 1009.41 1009.63 1009.89 1010.17 1010.45 1010.70
1019.68 1019.47 1019.30 1019.18 1019.08 1019.00 1018.91 1018.81 1018.71 1018.59 1018.47 1018.34 1018.19 1018.00 1017.77 1017.48 1017.12 1016.70 1016.21 1015.69 1015.16 1014.63 1014.12 1013.64 1013.17 1012.71 1012.25 1011.78 1011.29 1010.80 1010.33 1009.90 1009.54 1009.27 1009.12 1009.07 1009.13 1009.26 1009.46 1009.69 1009.93 1010.17 1010.39
1019.89 1019.66 1019.49 1019.35 1019.25 1019.15 1019.06 1018.95 1018.82 1018.67 1018.50 1018.31 1018.09 1017.83 1017.53 1017.18 1016.78 1016.33 1015.83 1015.31 1014.78 1014.25 1013.73 1013.22 1012.73 1012.25 1011.76 1011.27 1010.79 1010.33 1009.90 1009.54 1009.27 1009.09 1009.00 1009.02 1009.11 1009.26 1009.45 1009.65 1009.85 1010.05 1010.23
1019.98 1019.75 1019.56 1019.42 1019.31 1019.21 1019.11 1018.98 1018.83 1018.64 1018.41 1018.14 1017.84 1017.51 1017.14 1016.73 1016.28 1015.80 1015.30 1014.78 1014.25 1013.73 1013.20 1012.69 1012.17 1011.67 1011.17 1010.68 1010.22 1009.81 1009.46 1009.19 1009.01 1008.93 1008.93 1009.01 1009.14 1009.29 1009.46 1009.62 1009.78 1009.92 1010.06
1019.96 1019.72 1019.53 1019.38 1019.26 1019.16 1019.05 1018.90 1018.72 1018.49 1018.20 1017.87 1017.49 1017.08 1016.63 1016.17 1015.68 1015.18 1014.67 1014.16 1013.64 1013.13 1012.61 1012.09 1011.57 1011.05 1010.55 1010.09 1009.67 1009.31 1009.05 1008.88 1008.80 1008.81 1008.89 1009.00 1009.13 1009.25 1009.34 1009.42 1009.49 1009.55 1009.62
1019.83 1019.59 1019.39 1019.24 1019.12 1019.01 1018.89 1018.73 1018.52 1018.25 1017.91 1017.52 1017.08 1016.59 1016.09 1015.57 1015.05 1014.54 1014.03 1013.53 1013.02 1012.52 1012.01 1011.49 1010.97 1010.47 1009.99 1009.56 1009.19 1008.92 1008.74 1008.66 1008.66 1008.73 1008.82 1008.91 1008.97 1008.99 1008.96 1008.89 1008.80 1008.74 1008.72
1019.60 1019.36 1019.18 1019.03 1018.92 1018.81 1018.68 1018.51 1018.28 1017.97 1017.59 1017.15 1016.65 1016.12 1015.57 1015.02 1014.47 1013.95 1013.43 1012.93 1012.44 1011.94 1011.44 1010.93 1010.43 1009.94 1009.50 1009.12 1008.83 1008.63 1008.54 1008.53 1008.58 1008.66 1008.72 1008.71 1008.63 1008.45 1008.20 1007.91 1007.62 1007.38 1007.23
1019.31 1019.09 1018.92 1018.78 1018.68 1018.57 1018.44 1018.26 1018.02 1017.69 1017.28 1016.81 1016.27 1015.70 1015.12 1014.54 1013.97 1013.43 1012.90 1012.40 1011.90 1011.40 1010.89 1010.40 1009.91 1009.46 1009.07 1008.75 1008.54 1008.43 1008.41 1008.46 1008.54 1008.58 1008.55 1008.39 1008.10 1007.67 1007.13 1006.55 1006.00 1005.54 1005.24
1018.99 1018.80 1018.65 1018.54 1018.45 1018.35 1018.22 1018.03 1017.77 1017.43 1017.00 1016.50 1015.94 1015.35 1014.74 1014.14 1013.55 1012.98 1012.43 1011.90 1011.37 1010.85 1010.34 1009.84 1009.37 1008.96 1008.62 1008.39 1008.27 1008.25 1008.31 1008.41 1008.49 1008.48 1008.33 1007.99 1007.46 1006.74 1005.90 1005.00 1004.16 1003.46 1002.99
1018.68 1018.52 1018.41 1018.33 1018.25 1018.16 1018.02 1017.82 1017.55 1017.19 1016.74 1016.22 1015.65 1015.04 1014.41 1013.78 1013.16 1012.56 1011.97 1011.39 1010.82 1010.27 1009.73 1009.22 1008.76 1008.39 1008.12 1007.97 1007.95 1008.03 1008.17 1008.33 1008.42 1008.37 1008.11 1007.60 1006.84 1005.85 1004.72 1003.53 1002.41 1001.49 1000.86
1018.40 1018.30 1018.22 1018.17 1018.10 1018.01 1017.86 1017.64 1017.34 1016.95 1016.49 1015.95 1015.36 1014.73 1014.08 1013.42 1012.76 1012.11 1011.47 1010.83 1010.21 1009.60 1009.02 1008.50 1008.05 1007.72 1007.52 1007.46 1007.54 1007.73 1007.97 1008.20 1008.33 1008.26 1007.93 1007.31 1006.39 1005.21 1003.85 1002.44 1001.12 1000.02 999.26
1018.20 1018.14 1018.11 1018.07 1018.01 1017.90 1017.72 1017.47 1017.13 1016.71 1016.21 1015.65 1015.03 1014.38 1013.70 1013.01 1012.31 1011.61 1010.91 1010.21 1009.52 1008.86 1008.24 1007.70 1007.27 1006.98 1006.85 1006.89 1007.07 1007.38 1007.73 1008.05 1008.24 1008.21 1007.89 1007.23 1006.25 1004.98 1003.52 1001.99 1000.56 999.37 998.54
1018.09 1018.09 1018.09 1018.06 1017.98 1017.84 1017.61 1017.31 1016.91 1016.44 1015.89 1015.29 1014.65 1013.96 1013.25 1012.53 1011.79 1011.04 1010.28 1009.52 1008.79 1008.08 1007.45 1006.91 1006.50 1006.26 1006.20 1006.33 1006.62 1007.03 1007.50 1007.93 1008.22 1008.27 1008.02 1007.43 1006.49 1005.26 1003.83 1002.33 1000.91 999.72 998.89
1018.10 1018.14 1018.16 1018.12 1018.01 1017.82 1017.53 1017.15 1016.68 1016.14 1015.54 1014.89 1014.20 1013.48 1012.74 1011.98 1011.21 1010.42 1009.63 1008.84 1008.08 1007.37 1006.74 1006.22 1005.85 1005.67 1005.69 1005.91 1006.29 1006.81 1007.37 1007.91 1008.31 1008.48 1008.37 1007.91 1007.13 1006.06 1004.79 1003.44 1002.15 1001.06 1000.31
1018.25 1018.32 1018.33 1018.27 1018.11 1017.85 1017.48 1017.01 1016.46 1015.84 1015.17 1014.46 1013.72 1012.97 1012.20 1011.41 1010.62 1009.81 1009.02 1008.23 1007.49 1006.81 1006.22 1005.76 1005.47 1005.36 1005.46 1005.75 1006.21 1006.80 1007.44 1008.05 1008.55 1008.85 1008.89 1008.62 1008.06 1007.23 1006.22 1005.12 1004.07 1003.18 1002.57
1018.54 1018.61 1018.60 1018.49 1018.26 1017.92 1017.46 1016.90 1016.27 1015.57 1014.82 1014.05 1013.27 1012.48 1011.68 1010.88 1010.08 1009.29 1008.51 1007.77 1007.09 1006.48 1005.99 1005.62 1005.43 1005.41 1005.58 1005.93 1006.44 1007.06 1007.73 1008.39 1008.95 1009.34 1009.52 1009.45 1009.13 1008.59 1007.89 1007.11 1006.35 1005.71 1005.29
Thickness
5698 5694 5691 5689 5687 5686 5684 5682 5680 5678 5677 5675 5675 5675 5674 5673 5671 5670 5670 5670 5669 5667 5665 5664 5663 5664 5664 5665 5665 5666 5668 5669 5670 5670 5671 5671 5672 5674 5676 5679 5682 5684 5687
5691 5688 5684 5682 5680 5680 5678 5675 5672 5670 5669 5667 5666 5665 5664 5662 5661 5659 5659 5658 5657 5656 5655 5654 5654 5654 5654 5655 5656 5657 5658 5659 5661 5662 5662 5663 5663 5665 5666 5669 5671 5674 5677
5684 5680 5676 5673 5670 5668 5666 5663 5661 5659 5657 5655 5653 5652 5651 5649 5648 5647 5645 5644 5643 5643 5643 5643 5643 5644 5644 5646 5647 5648 5650 5651 5651 5652 5653 5653 5654 5655 5656 5658 5661 5663 5667
5676 5671 5667 5663 5660 5656 5653 5650 5646 5643 5641 5639 5638 5639 5638 5637 5636 5634 5633 5631 5630 5629 5629 5628 5629 5631 5633 5635 5636 5638 5640 5642 5642 5642 5643 5643 5644 5644 5646 5647 5650 5652 5656
5664 5660 5656 5652 5649 5646 5641 5638 5633 5630 5626 5625 5625 5626 5625 5623 5621 5620 5618 5617 5616 5615 5614 5614 5614 5616 5618 5621 5623 5626 5629 5631 5632 5632 5632 5633 5633 5634 5635 5636 5639 5641 5644
5652 5648 5644 5641 5638 5635 5630 5626 5621 5616 5612 5609 5610 5610 5609 5608 5606 5603 5601 5600 5598 5596 5595 5595 5596 5598 5601 5604 5607 5611 5615 5619 5620 5619 5619 5620 5621 5621 5622 5624 5627 5629 5632
5640 5636 5632 5629 5626 5622 5617 5613 5609 5602 5596 5592 5589 5590 5594 5593 5589 5585 5581 5578 5576 5573 5572 5572 5573 5575 5579 5583 5588 5593 5599 5605 5607 5606 5605 5606 5606 5607 5608 5611 5613 5617 5620
5627 5624 5619 5615 5611 5606 5601 5596 5590 5583 5577 5570 5563 5561 5565 5572 5572 5566 5558 5553 5551 5549 5547 5547 5548 5551 5555 5560 5567 5573 5580 5587 5591 5593 5593 5593 5593 5593 5594 5596 5599 5603 5608
5613 5609 5604 5599 5594 5588 5581 5576 5569 5562 5554 5548 5541 5535 5531 5536 5541 5545 5537 5532 5527 5525 5523 5523 5525 5528 5532 5538 5545 5551 5559 5566 5572 5576 5580 5580 5579 5579 5580 5581 5584 5588 5594
5597 5592 5587 5582 5576 5570 5563 5557 5550 5543 5535 5527 5521 5517 5512 5511 5512 5520 5517 5511 5507 5504 5501 5503 5505 5509 5514 5519 5525 5532 5540 5546 5552 5558 5562 5563 5562 5563 5564 5566 5570 5574 5579
5583 5577 5571 5565 5559 5553 5546 5540 5534 5527 5520 5512 5505 5501 5497 5496 5495 5495 5498 5495 5493 5491 5491 5491 5494 5497 5501 5506 5512 5519 5525 5531 5536 5540 5543 5545 5545 5546 5548 5551 5554 5558 5562
5568 5562 5557 5550 5544 5539 5533 5528 5522 5516 5509 5502 5496 5491 5487 5484 5484 5483 5483 5484 5483 5484 5484 5486 5488 5491 5494 5498 5503 5508 5513 5518 5522 5525 5527 5528 5529 5529 5530 5533 5538 5542 5547
5553 5548 5542 5537 5532 5527 5522 5517 5511 5505 5500 5495 5489 5485 5481 5477 5476 5475 5474 5475 5476 5478 5479 5481 5483 5485 5488 5492 5495 5499 5504 5508 5511 5513 5513 5514 5515 5514 5515 5518 5523 5528 5533
5539 5534 5529 5524 5521 5517 5512 5507 5501 5496 5491 5486 5482 5478 5475 5472 5470 5468 5466 5466 5469 5472 5474 5475 5478 5480 5482 5485 5488 5491 5495 5499 5501 5502 5501 5501 5501 5501 5505 5506 5510 5514 5520
5526 5521 5517 5513 5510 5507 5502 5496 5490 5485 5480 5475 5472 5469 5466 5465 5463 5462 5461 5459 5459 5465 5470 5470 5470 5473 5475 5478 5482 5485 5489 5492 5493 5493 5491 5489 5488 5489 5492 5494 5498 5502 5508
5513 5510 5507 5504 5501 5497 5491 5485 5479 5474 5469 5464 5461 5459 5457 5456 5456 5456 5456 5456 5454 5455 5462 5464 5464 5467 5470 5474 5478 5481 5484 5486 5488 5486 5483 5480 5478 5478 5480 5482 5486 5491 5498
5504 5502 5499 5496 5492 5487 5481 5474 5468 5463 5458 5454 5451 5449 5448 5448 5448 5450 5451 5452 5451 5451 5455 5460 5461 5464 5467 5470 5473 5476 5479 5482 5481 5479 5476 5473 5471 5471 5473 5476 5480 5485 5491
5499 5496 5493 5489 5484 5478 5471 5464 5458 5453 5448 5444 5442 5439 5439 5441 5441 5442 5445 5447 5448 5449 5451 5456 5458 5460 5464 5467 5470 5473 5475 5476 5474 5472 5469 5467 5467 5467 5469 5472 5476 5482 5488
5494 5491 5487 5482 5476 5469 5461 5453 5447 5442 5437 5434 5432 5430 5431 5432 5434 5437 5439 5442 5445 5447 5448 5451 5456 5458 5462 5465 5467 5469 5469 5468 5467 5465 5464 5462 5462 5464 5467 5471 5477 5484 5492
5488 5485 5480 5475 5468 5459 5450 5442 5436 5431 5427 5424 5423 5423 5424 5425 5428 5431 5434 5437 5440 5443 5445 5449 5454 5458 5462 5465 5466 5466 5464 5461 5460 5459 5458 5458 5458 5461 5465 5472 5482 5494 5503
5483 5478 5472 5466 5458 5448 5439 5432 5426 5422 5418 5416 5416 5416 5417 5420 5424 5425 5428 5432 5436 5440 5444 5448 5454 5458 5462 5463 5465 5463 5460 5456 5454 5453 5453 5453 5454 5458 5465 5476 5493 5511 5522
5474 5468 5462 5454 5445 5437 5428 5420 5416 5412 5408 5408 5408 5409 5410 5413 5416 5419 5423 5428 5433 5438 5445 5450 5455 5459 5463 5464 5463 5460 5457 5454 5452 5449 5448 5448 5450 5454 5462 5479 5505 5524 5533
5464 5457 5449 5441 5432 5423 5415 5408 5405 5401 5398 5399 5400 5401 5404 5408 5410 5413 5419 5427 5433 5440 5447 5453 5460 5463 5464 5464 5462 5458 5456 5453 5449 5446 5445 5444 5445 5450 5459 5475 5502 5519 5525
5454 5445 5437 5428 5418 5409 5403 5398 5395 5391 5390 5392 5393 5395 5398 5402 5407 5411 5417 5425 5435 5444 5452 5461 5466 5468 5466 5464 5462 5459 5454 5449 5445 5443 5443 5440 5441 5446 5455 5467 5482 5498 5507
5443 5433 5423 5413 5404 5396 5391 5387 5385 5382 5383 5386 5389 5392 5394 5398 5403 5407 5415 5424 5435 5446 5456 5463 5467 5467 5465 5463 5460 5456 5452 5450 5445 5440 5440 5438 5438 5443 5451 5458 5464 5474 5482
5430 5419 5409 5400 5392 5385 5381 5378 5377 5376 5378 5381 5386 5390 5394 5396 5401 5406 5414 5423 5434 5445 5452 5459 5460 5459 5458 5456 5456 5456 5455 5452 5448 5441 5437 5438 5439 5443 5447 5448 5453 5458 5463